Weather History for Clinton, MO

Change the Weather History Date:

Thursday, January 16, 2014

  Actual Average (KSZL) Record (KSZL)
Temperature  
Mean Temperature 37 °F -  
Max Temperature 48 °F 37 °F 67 °F (2012)
Min Temperature 26 °F 20 °F 0 °F (2009)
Degree Days  
Heating Degree Days 28    
Moisture  
Dew Point 24 °F    
Average Humidity 57    
Maximum Humidity 87    
Minimum Humidity 37    
Precipitation  
Precipitation 0.06 in - - ()
Sea Level Pressure  
Sea Level Pressure 29.87 in    
Wind  
Wind Speed 10 mph (WNW)    
Max Wind Speed 28 mph    
Max Gust Speed 38 mph    
Visibility 10 miles    
Events Snow    
Averages and records for this station are not official NWS values.
T = Trace of Precipitation, MM = Missing Value Source: NWS Daily Summary

Daily Weather History Graph

Daily Weather History Graph

Search for Another Location

Airport:

Trip Planner

Search our weather history database for the weather conditions in past years. The results will help you decide how hot, cold, wet, or windy it might be!

Date:

Astronomy

Jan. 16, 2014 Rise Set
Actual Time 7:30 AM CST 5:19 PM CST
Civil Twilight 7:01 AM CST 5:48 PM CST
Nautical Twilight 6:28 AM CST 6:20 PM CST
Astronomical Twilight 5:56 AM CST 6:52 PM CST
Moon 6:10 PM CST (1/16) 7:25 AM CST (1/16)
Length of Visible Light 10h 47m
Length of Day
9h 49m
Full, 100% of the Moon is Illuminated
Jan 16
Full
Jan 23
Last Quarter
Jan 30
New
Feb 6
First Quarter
Feb 14
Full

Hourly Weather History & Observations

Time (CST) Temp. Windchill Dew Point Humidity Pressure Visibility Wind Dir Wind Speed Gust Speed Precip Events Conditions
12:15 AM 35.6 °F 29.2 °F 23.0 °F 60% 29.86 in 10.0 mi SSW 8.1 mph - N/A   Clear
12:35 AM 35.6 °F 30.7 °F 23.0 °F 60% 29.85 in 10.0 mi South 5.8 mph - N/A   Clear
12:55 AM 35.6 °F 30.7 °F 23.0 °F 60% 29.84 in 10.0 mi South 5.8 mph - N/A   Clear
1:15 AM 35.6 °F 30.7 °F 23.0 °F 60% 29.83 in 10.0 mi South 5.8 mph - N/A   Scattered Clouds
1:35 AM 35.6 °F - 24.8 °F 65% 29.84 in 10.0 mi Calm Calm - N/A   Mostly Cloudy
1:55 AM 33.8 °F - 26.6 °F 75% 29.85 in 10.0 mi Calm Calm - N/A   Overcast
2:15 AM 33.8 °F - 28.4 °F 81% 29.83 in 10.0 mi Calm Calm - N/A   Overcast
2:35 AM 33.8 °F - 26.6 °F 75% 29.83 in 10.0 mi Calm Calm - N/A   Overcast
2:55 AM 35.6 °F - 26.6 °F 70% 29.83 in 10.0 mi Calm Calm - N/A   Overcast
3:15 AM 33.8 °F 28.6 °F 26.6 °F 75% 29.82 in 10.0 mi South 5.8 mph - N/A   Overcast
3:35 AM 35.6 °F - 24.8 °F 65% 29.81 in 10.0 mi Calm Calm - N/A   Mostly Cloudy
3:55 AM 33.8 °F 28.6 °F 24.8 °F 70% 29.81 in 10.0 mi SSW 5.8 mph - N/A   Clear
4:15 AM 33.8 °F 30.8 °F 26.6 °F 75% 29.83 in 10.0 mi WSW 3.5 mph - N/A   Clear
4:35 AM 33.8 °F 29.6 °F 26.6 °F 75% 29.82 in 10.0 mi SSW 4.6 mph - N/A   Partly Cloudy
4:55 AM 35.6 °F 29.9 °F 26.6 °F 70% 29.80 in 10.0 mi SW 6.9 mph - N/A   Clear
5:15 AM 35.6 °F - 26.6 °F 70% 29.77 in 10.0 mi Calm Calm - N/A   Partly Cloudy
5:35 AM 35.6 °F 29.2 °F 28.4 °F 75% 29.77 in 10.0 mi SSW 8.1 mph - N/A   Partly Cloudy
5:55 AM 35.6 °F 28.6 °F 28.4 °F 75% 29.77 in 10.0 mi SW 9.2 mph - N/A   Clear
6:15 AM 35.6 °F 29.2 °F 28.4 °F 75% 29.78 in 10.0 mi WSW 8.1 mph - N/A   Clear
6:35 AM 35.6 °F 28.0 °F 28.4 °F 75% 29.79 in 10.0 mi WSW 10.4 mph - N/A   Clear
6:55 AM 35.6 °F 27.5 °F 28.4 °F 75% 29.81 in 10.0 mi WSW 11.5 mph - N/A   Clear
7:15 AM 33.8 °F 26.4 °F 28.4 °F 81% 29.81 in 10.0 mi WSW 9.2 mph - N/A   Clear
7:35 AM 35.6 °F 29.2 °F 28.4 °F 75% 29.82 in 10.0 mi WSW 8.1 mph - N/A   Clear
7:55 AM 35.6 °F 29.9 °F 28.4 °F 75% 29.82 in 10.0 mi WSW 6.9 mph - N/A   Scattered Clouds
8:15 AM 35.6 °F 29.9 °F 28.4 °F 75% 29.82 in 10.0 mi West 6.9 mph - N/A   Partly Cloudy
8:35 AM 39.2 °F 31.6 °F 30.2 °F 70% 29.82 in 10.0 mi WNW 12.7 mph - N/A   Clear
8:55 AM 42.8 °F 35.8 °F 30.2 °F 61% 29.83 in 10.0 mi West 13.8 mph - N/A   Clear
9:15 AM 44.6 °F 37.8 °F 28.4 °F 53% 29.85 in 10.0 mi WNW 15.0 mph 24.2 mph N/A   Clear
9:35 AM 44.6 °F 36.4 °F 28.4 °F 53% 29.85 in 10.0 mi WNW 20.7 mph 26.5 mph N/A   Clear
9:55 AM 46.4 °F 39.0 °F 26.6 °F 46% 29.86 in 10.0 mi WNW 19.6 mph 27.6 mph N/A   Clear
10:15 AM 46.4 °F 37.9 °F 26.6 °F 46% 29.86 in 10.0 mi NW 25.3 mph 34.5 mph N/A   Clear
10:35 AM 46.4 °F 38.7 °F 26.6 °F 46% 29.87 in 10.0 mi WNW 20.7 mph 26.5 mph N/A   Partly Cloudy
10:55 AM 46.4 °F 38.5 °F 26.6 °F 46% 29.87 in 10.0 mi WNW 21.9 mph 29.9 mph N/A   Partly Cloudy
11:15 AM 46.4 °F 39.0 °F 24.8 °F 43% 29.87 in 10.0 mi WNW 19.6 mph 28.8 mph N/A   Mostly Cloudy
11:35 AM 48.2 °F - 24.8 °F 40% 29.86 in 10.0 mi NW 17.3 mph 26.5 mph N/A   Scattered Clouds
11:55 AM 46.4 °F 39.8 °F 23.0 °F 40% 29.86 in 10.0 mi WNW 16.1 mph 25.3 mph N/A   Scattered Clouds
12:15 PM 48.2 °F - 23.0 °F 37% 29.85 in 10.0 mi WNW 20.7 mph 25.3 mph N/A   Partly Cloudy
12:35 PM 48.2 °F - 23.0 °F 37% 29.84 in 10.0 mi WNW 19.6 mph 28.8 mph N/A   Scattered Clouds
12:55 PM 48.2 °F - 23.0 °F 37% 29.84 in 10.0 mi West 19.6 mph 26.5 mph N/A   Mostly Cloudy
1:15 PM 46.4 °F 39.0 °F 23.0 °F 40% 29.83 in 10.0 mi WNW 19.6 mph 26.5 mph N/A   Mostly Cloudy
1:35 PM 46.4 °F 38.5 °F 23.0 °F 40% 29.83 in 10.0 mi WNW 21.9 mph 28.8 mph N/A   Mostly Cloudy
1:55 PM 46.4 °F 39.0 °F 21.2 °F 37% 29.83 in 10.0 mi WNW 19.6 mph 27.6 mph N/A   Mostly Cloudy
2:35 PM 46.4 °F 39.5 °F 23.0 °F 40% 29.84 in 10.0 mi WNW 17.3 mph 25.3 mph N/A   Scattered Clouds
2:55 PM 46.4 °F 40.4 °F 23.0 °F 40% 29.84 in 10.0 mi WNW 13.8 mph 21.9 mph N/A   Scattered Clouds
3:15 PM 46.4 °F 39.0 °F 23.0 °F 40% 29.85 in 10.0 mi WNW 19.6 mph 27.6 mph N/A   Scattered Clouds
3:35 PM 44.6 °F 37.4 °F 21.2 °F 39% 29.85 in 10.0 mi NW 16.1 mph 33.4 mph N/A   Scattered Clouds
3:55 PM 46.4 °F 40.1 °F 23.0 °F 40% 29.85 in 10.0 mi NW 15.0 mph 23.0 mph N/A   Scattered Clouds
4:15 PM 44.6 °F 38.4 °F 23.0 °F 43% 29.86 in 10.0 mi WNW 12.7 mph 21.9 mph N/A   Scattered Clouds
4:35 PM 44.6 °F 39.2 °F 23.0 °F 43% 29.86 in 10.0 mi WNW 10.4 mph - N/A   Partly Cloudy
4:55 PM 42.8 °F 34.5 °F 23.0 °F 46% 29.86 in 10.0 mi WNW 18.4 mph 25.3 mph N/A   Clear
5:15 PM 42.8 °F 34.8 °F 21.2 °F 42% 29.87 in 10.0 mi WNW 17.3 mph 25.3 mph N/A   Clear
5:35 PM 42.8 °F 36.2 °F 23.0 °F 46% 29.87 in 10.0 mi WNW 12.7 mph - N/A   Scattered Clouds
5:55 PM 42.8 °F 35.8 °F 23.0 °F 46% 29.88 in 10.0 mi WNW 13.8 mph 24.2 mph N/A   Partly Cloudy
6:15 PM 42.8 °F 36.6 °F 23.0 °F 46% 29.89 in 10.0 mi WNW 11.5 mph 17.3 mph N/A   Scattered Clouds
6:35 PM 41.0 °F 33.9 °F 23.0 °F 49% 29.89 in 10.0 mi WNW 12.7 mph 18.4 mph N/A   Mostly Cloudy
6:55 PM 39.2 °F 30.8 °F 21.2 °F 49% 29.89 in 10.0 mi WNW 15.0 mph 20.7 mph N/A   Partly Cloudy
7:15 PM 39.2 °F 31.6 °F 21.2 °F 49% 29.90 in 10.0 mi WNW 12.7 mph - N/A   Clear
7:35 PM 39.2 °F 29.8 °F 21.2 °F 49% 29.91 in 10.0 mi WNW 18.4 mph 25.3 mph N/A   Clear
7:55 PM 37.4 °F 26.6 °F 30.2 °F 75% 29.93 in 2.5 mi NNW 21.9 mph 35.7 mph 0.06 in Snow Light Snow
8:15 PM 33.8 °F 22.8 °F 30.2 °F 87% 29.94 in 10.0 mi NW 18.4 mph 24.2 mph N/A   Scattered Clouds
8:35 PM 35.6 °F 23.0 °F 19.4 °F 52% 29.95 in 10.0 mi NW 27.6 mph 38.0 mph N/A   Partly Cloudy
8:55 PM 33.8 °F 22.5 °F 17.6 °F 52% 29.96 in 10.0 mi NW 19.6 mph 35.7 mph N/A   Clear
9:15 PM 32.0 °F 20.8 °F 14.0 °F 48% 29.97 in 10.0 mi NW 17.3 mph 28.8 mph N/A   Clear
9:35 PM 32.0 °F 19.2 °F 12.2 °F 44% 29.98 in 10.0 mi NW 23.0 mph 34.5 mph N/A   Clear
9:55 PM 32.0 °F 20.5 °F 17.6 °F 55% 30.00 in 10.0 mi North 18.4 mph 26.5 mph N/A   Partly Cloudy
10:15 PM 28.4 °F 18.0 °F 14.0 °F 55% 30.02 in 10.0 mi North 12.7 mph 25.3 mph N/A   Scattered Clouds
10:35 PM 28.4 °F 20.4 °F 15.8 °F 59% 30.02 in 10.0 mi North 8.1 mph - N/A   Scattered Clouds
10:55 PM 28.4 °F 17.0 °F 15.8 °F 59% 30.03 in 10.0 mi NNW 15.0 mph - N/A   Mostly Cloudy
11:15 PM 28.4 °F 15.8 °F 15.8 °F 59% 30.04 in 10.0 mi NNW 18.4 mph 26.5 mph N/A   Mostly Cloudy
11:35 PM 26.6 °F 13.8 °F 15.8 °F 64% 30.05 in 10.0 mi NNW 17.3 mph 28.8 mph N/A   Mostly Cloudy
11:55 PM 26.6 °F 13.1 °F 15.8 °F 64% 30.06 in 5.0 mi NNW 19.6 mph 25.3 mph N/A Snow Light Snow